Meteo Giornale » Osservazioni meteo Francia » Dijon
ore: 17:00 - Osservazioni Meteo Dijon
Lat. 47° 16' N Lon. 5° 5' E Alt. 222 metri s.l.m.
25 °C
Sereno
Temp. 24 Ore
16 °C
28 °C
Ovest/Sud-Ovest
24 Km/h
Dew point 11 °C
Umidità 41 %
Visibilità 10 Km
Il sole sorge alle ore 06:57
Il sole tramonta alle ore 20:22
| Data e Ora | Cielo e Fenomeni | T °C | DP °C | Um. % | Pres. hPa | Vis. km | Vento km/h | |
|---|---|---|---|---|---|---|---|---|
| Oggi h: 17:00 | Sereno | 25 | 11 | 41 | 1019 | 10 | O/SO 24 | |
| Oggi h: 16:30 | Sereno | 26 | 11 | 39 | 1019 | 10 | O/SO 22.2 | |
| Oggi h: 16:00 | Sereno | 25 | 11 | 41 | 1019 | 10 | SO 20.3 | |
| Oggi h: 15:30 | Sereno | 24 | 11 | 43 | 1019 | 10 | O/SO 22.2 | |
| Oggi h: 15:00 | Sereno | 24 | 11 | 43 | 1019 | 10 | O/SO 27.8 | |
| Oggi h: 14:30 | Sereno | 24 | 12 | 47 | 1019 | 10 | O/SO 24 | |
| Oggi h: 14:00 | Sereno | 23 | 12 | 49 | 1019 | 10 | O/SO 22.2 | |
| Oggi h: 13:30 | Sereno | 23 | 12 | 49 | 1020 | 10 | O 24 | |
| Oggi h: 13:00 | Nuvoloso | 23 | 12 | 49 | 1020 | 10 | O/SO 27.8 | |
| Oggi h: 12:30 | Nuvoloso | 22 | 12 | 53 | 1020 | 10 | O/SO 27.8 | |
| Oggi h: 12:00 | Molto Nuvoloso | 21 | 13 | 60 | 1020 | 10 | O/SO 31.5 | |
| Oggi h: 11:30 | Molto Nuvoloso | 21 | 15 | 68 | 1020 | 10 | O/SO 27.8 | |
| Oggi h: 11:00 | Molto Nuvoloso | 21 | 14 | 64 | 1020 | 10 | SO 22.2 | |
| Oggi h: 10:30 | Molto Nuvoloso | 19 | 15 | 77 | 1019 | 10 | S/SO 16.7 | |
| Oggi h: 10:00 | Poco Nuvoloso | 19 | 15 | 77 | 1019 | 10 | S/SO 14.8 | |
| Oggi h: 09:30 | Sereno | 19 | 15 | 77 | 1019 | 10 | S 11.1 | |
| Oggi h: 09:00 | Sereno | 17 | 15 | 88 | 1019 | 10 | S 14.8 | |
| Oggi h: 08:30 | Sereno | 17 | 14 | 82 | 1019 | 10 | S 13 | |
| Oggi h: 08:00 | Sereno | 16 | 14 | 87 | 1019 | 10 | S 11.1 | |
| Oggi h: 07:30 | Sereno | 16 | 14 | 87 | 1019 | 10 | S 11.1 | |
| Oggi h: 07:00 | Poco Nuvoloso | 16 | 14 | 87 | 1018 | 10 | S 9.3 | |
| Oggi h: 06:30 | Sereno | 16 | 14 | 87 | 1018 | 10 | S 11.1 | |
| Oggi h: 06:00 | Sereno | 16 | 14 | 87 | 1018 | 10 | S 9.3 | |
| Oggi h: 05:30 | Sereno | 17 | 14 | 82 | 1018 | 10 | S 9.3 | |
| Oggi h: 05:00 | Sereno | 16 | 14 | 87 | 1018 | 10 | S 9.3 | |
| Oggi h: 04:30 | Sereno | 16 | 14 | 87 | 1018 | 10 | SE 7.4 | |
| Oggi h: 04:00 | Sereno | 17 | 14 | 82 | 1018 | 10 | SO 9.3 | |
| Oggi h: 03:30 | Sereno | 18 | 14 | 77 | 1018 | 10 | O/SO 20.3 | |
| Oggi h: 03:00 | Sereno | 18 | 14 | 77 | 1018 | 10 | O/SO 22.2 | |
| Oggi h: 02:30 | Sereno | 18 | 15 | 82 | 1017 | 10 | O 29.6 | |
| Oggi h: 02:00 | Sereno | 18 | 15 | 82 | 1017 | 10 | O/SO 20.3 | |
| Oggi h: 01:30 | Sereno | 19 | 15 | 77 | 1017 | 10 | O/SO 18.5 | |
| Oggi h: 01:00 | Sereno | 19 | 16 | 82 | 1017 | 10 | SO 11.1 | |
| Oggi h: 00:30 | Sereno | 19 | 17 | 88 | 1017 | 10 | SO 7.4 | |
| Oggi h: 00:00 | Sereno | 19 | 17 | 88 | 1016 | 10 | N 5.5 | |
| Ieri h: 23:30 | Pioggia | 19 | 17 | 88 | 1016 | 9 | O/NO 14.8 | |
| Ieri h: 23:00 | Molto Nuvoloso | 20 | 18 | 88 | 1016 | 10 | N 5.5 | |
| Ieri h: 22:30 | Sereno | 20 | 17 | 82 | 1015 | 10 | N/NO 11.1 | |
| Ieri h: 22:00 | Sereno | 21 | 17 | 77 | 1015 | 10 | NO 14.8 | |
| Ieri h: 21:30 | Pioggia | 21 | 17 | 77 | 1015 | 10 | S/SO 13 | |
| Ieri h: 21:00 | Temporale nelle vicinanze | 24 | 16 | 60 | 1014 | 10 | SO 11.1 | |
| Ieri h: 20:30 | Sereno | 25 | 14 | 50 | 1013 | 10 | O/SO 7.4 | |
| Ieri h: 20:00 | Sereno | 26 | 14 | 47 | 1013 | 10 | O/SO 13 | |
| Ieri h: 19:30 | Sereno | 27 | 13 | 42 | 1014 | 10 | SO 14.8 | |
| Ieri h: 19:00 | Sereno | 27 | 14 | 44 | 1014 | 10 | S/SO 13 | |
| Ieri h: 18:30 | Coperto | 28 | 13 | 39 | 1014 | 10 | S/SO 14.8 | |
| Ieri h: 18:00 | Sereno | 28 | 14 | 42 | 1014 | 10 | S 16.7 | |



